(°C)
(°C)
ΝΑ
ΑΝΑ
ΑΝΑ
ΝΑ
ΝΑ
ΝΑ
ΝΝΑ
(χλμ / ω)
3-5
3-6
3-7
3-7
3-7
3-7
3-7
(χιλιοστά)
0
0
0
0
0
0
0
(%)
0
0
0
0
0
0
0

Ανύψωση ήλιου

/ -25.6°
sun-icon
UV 1
07:47
16:51
Φθίνων αμφίκυρτος (φάση σελήνης) (198°)
18:39
09:17

METAR για Renton (KRNT)

Χρόνος Συνθήκες Θερμοκρασία/
Σημείο δρόσου
Άνεμος Ορατότητα Καιρός Νέφη Πίεση Αλλαγή Ανεπεξέργαστο
MVFR 6.7°C / 5°C variable 0kt >10km - Overcast 2900ft 1025 - KRNT 191253Z AUTO 00000KT 10SM OVC029 07/05 A3028 RMK AO2 SLP257 T00670050
MVFR 6.7°C / 5.6°C variable 0kt >10km - Overcast 2900ft 1025 - KRNT 191153Z AUTO 00000KT 10SM OVC029 07/06 A3028 RMK AO2 SLP258 T00670056 10083 20067 51009
MVFR 6.7°C / 5.6°C variable 0kt >10km - Overcast 2900ft - KRNT 191140Z AUTO 00000KT 10SM OVC029 07/06 A3028 RMK AO2 T00670056
MVFR 6.7°C / 5.6°C variable 0kt >10km - Overcast 3000ft - KRNT 191130Z AUTO 00000KT 9SM OVC030 07/06 A3028 RMK AO2 T00670056
MVFR 6.7°C / 5.6°C 120º 3kt >10km - Broken Clouds 2700ft
Broken Clouds 3200ft
Overcast 6500ft
1025 - KRNT 191053Z AUTO 12003KT 8SM BKN027 BKN032 OVC065 07/06 A3028 RMK AO2 SLP257 T00670056
VFR 6.7°C / 5.6°C variable 0kt >10km - Scattered Clouds 400ft 1024 - KRNT 190953Z AUTO 00000KT 10SM SCT004 07/06 A3025 RMK AO2 SLP249 T00670056
VFR 7.8°C / 6.1°C variable 0kt >10km - Overcast 4400ft 1024 - KRNT 190853Z AUTO 00000KT 10SM OVC044 08/06 A3024 RMK AO2 SLP246 T00780061 51010
VFR 7.8°C / 6.7°C variable 0kt >10km - Few Clouds 2800ft
Overcast 4100ft
1024 - KRNT 190753Z AUTO 00000KT 9SM FEW028 OVC041 08/07 A3023 RMK AO2 SLP241 T00780067 400890078
VFR 8.3°C / 6.7°C variable 0kt >10km - Scattered Clouds 2200ft
Overcast 4100ft
- KRNT 190731Z AUTO 00000KT 8SM SCT022 OVC041 08/07 A3024 RMK AO2 T00830067
MVFR 8.3°C / 6.7°C variable 0kt >10km - Scattered Clouds 1700ft
Broken Clouds 2400ft
Overcast 3900ft
1024 - KRNT 190653Z AUTO 00000KT 10SM SCT017 BKN024 OVC039 08/07 A3024 RMK AO2 SLP244 T00830067
MVFR 8.3°C / 6.7°C 180º 3kt >10km - Broken Clouds 1700ft
Overcast 3300ft
1023 - KRNT 190553Z AUTO 18003KT 9SM BKN017 OVC033 08/07 A3022 RMK AO2 SLP236 60000 T00830067 10089 20083 51008
MVFR 8.3°C / 6.7°C variable 0kt >10km - Few Clouds 2000ft
Overcast 2700ft
1023 - KRNT 190453Z 00000KT 8SM FEW020 OVC027 08/07 A3022 RMK AO2 SLP236 T00830067
MVFR 8.3°C / 7.2°C variable 0kt >10km - Scattered Clouds 900ft
Overcast 2700ft
- KRNT 190441Z 00000KT 7SM SCT009 OVC027 08/07 A3022 RMK AO2 T00830072
IFR 8.3°C / 7.2°C variable 0kt 9700m Mist Vertical Visibility of 0ft.
Overcast 2700ft
- KRNT 190434Z 00000KT 6SM BR BKN009 OVC027 08/07 A3021 RMK AO2 CIG 007V012 T00830072
MVFR 8.3°C / 7.2°C variable 0kt 6400m Mist Vertical Visibility of 0ft.
Broken Clouds 2100ft
Overcast 2700ft
- KRNT 190359Z 00000KT 4SM BR BKN011 BKN021 OVC027 08/07 A3020 RMK AO2 T00830072
IFR 8.3°C / 7.2°C variable 0kt 4000m Mist Vertical Visibility of 0ft.
Broken Clouds 2100ft
Overcast 2500ft
1023 - KRNT 190353Z 00000KT 2 1/2SM BR FEW011 BKN021 OVC025 08/07 A3020 RMK AO2 SLP231 T00830072
MVFR 8.3°C / 7.2°C variable 0kt >10km - Overcast 2200ft 1022 - KRNT 190253Z 00000KT 10SM OVC022 08/07 A3019 RMK AO2 SLP228 60000 T00830072 51010
MVFR 8.3°C / 7.2°C variable 0kt >10km - Overcast 2100ft - KRNT 190200Z 00000KT 10SM OVC021 08/07 A3018 RMK AO2 T00830072
IFR 8.3°C / 7.2°C 160º 3kt 4000m Light Rain Mist 0.13mm precipitation Overcast 1500ft - KRNT 190100Z 16003KT 2 1/2SM -RA BR OVC015 08/07 A3017 RMK AO2 P0000 T00830072
IFR 8.3°C / 7.2°C 170º 3kt 4000m Mist Vertical Visibility of 0ft.
Overcast 2100ft
- KRNT 190037Z 17003KT 2 1/2SM BR BKN015 OVC021 08/07 A3017 RMK AO2 VIS 1 3/4V4 T00830072
MVFR 8.3°C / 6.7°C 180º 3kt 4800m Mist Vertical Visibility of 0ft.
Broken Clouds 1300ft
Overcast 2300ft
- KRNT 190024Z 18003KT 3SM BR SCT009 BKN013 OVC023 08/07 A3017 RMK AO2 T00830067
IFR 8.9°C / 6.7°C 180º variable 006º to 013º 4kt 4800m Mist Vertical Visibility of 0ft. - KRNT 182358Z AUTO 18004KT 3SM BR OVC007 09/07 A3016 RMK AO2 CIG 006V013 T00890067
IFR 8.3°C / 6.7°C 180º 4kt 4000m Mist Vertical Visibility of 0ft.
Overcast 1300ft
1021 - KRNT 182353Z 18004KT 2 1/2SM BR BKN009 OVC013 08/07 A3016 RMK AO2 SLP218 60000 T00830067 10089 20083 53010
IFR 8.9°C / 6.7°C 210º 3kt 4000m Mist 0.13mm precipitation Broken Clouds 900ft
Overcast 1500ft
1021 - KRNT 182253Z 21003KT 2 1/2SM BR BKN009 OVC015 09/07 A3015 RMK AO2 RAB41E48 SLP215 P0000 T00890067

MVFR

6.7°C / 5°C

[Περισσότερο]
Άνεμος variable 0kt
Ορατότητα >10km
Καιρός -
Νέφη Overcast 2900ft
Πίεση 1025
Αλλαγή -
Ανεπεξέργαστο KRNT 191253Z AUTO 00000KT 10SM OVC029 07/05 A3028 RMK AO2 SLP257 T00670050

MVFR

6.7°C / 5.6°C

[Περισσότερο]
Άνεμος variable 0kt
Ορατότητα >10km
Καιρός -
Νέφη Overcast 2900ft
Πίεση 1025
Αλλαγή -
Ανεπεξέργαστο KRNT 191153Z AUTO 00000KT 10SM OVC029 07/06 A3028 RMK AO2 SLP258 T00670056 10083 20067 51009

MVFR

6.7°C / 5.6°C

[Περισσότερο]
Άνεμος variable 0kt
Ορατότητα >10km
Καιρός -
Νέφη Overcast 2900ft
Πίεση
Αλλαγή -
Ανεπεξέργαστο KRNT 191140Z AUTO 00000KT 10SM OVC029 07/06 A3028 RMK AO2 T00670056

MVFR

6.7°C / 5.6°C

[Περισσότερο]
Άνεμος variable 0kt
Ορατότητα >10km
Καιρός -
Νέφη Overcast 3000ft
Πίεση
Αλλαγή -
Ανεπεξέργαστο KRNT 191130Z AUTO 00000KT 9SM OVC030 07/06 A3028 RMK AO2 T00670056

MVFR

6.7°C / 5.6°C

[Περισσότερο]
Άνεμος 120º 3kt
Ορατότητα >10km
Καιρός -
Νέφη Broken Clouds 2700ft
Broken Clouds 3200ft
Overcast 6500ft
Πίεση 1025
Αλλαγή -
Ανεπεξέργαστο KRNT 191053Z AUTO 12003KT 8SM BKN027 BKN032 OVC065 07/06 A3028 RMK AO2 SLP257 T00670056

VFR

6.7°C / 5.6°C

[Περισσότερο]
Άνεμος variable 0kt
Ορατότητα >10km
Καιρός -
Νέφη Scattered Clouds 400ft
Πίεση 1024
Αλλαγή -
Ανεπεξέργαστο KRNT 190953Z AUTO 00000KT 10SM SCT004 07/06 A3025 RMK AO2 SLP249 T00670056

VFR

7.8°C / 6.1°C

[Περισσότερο]
Άνεμος variable 0kt
Ορατότητα >10km
Καιρός -
Νέφη Overcast 4400ft
Πίεση 1024
Αλλαγή -
Ανεπεξέργαστο KRNT 190853Z AUTO 00000KT 10SM OVC044 08/06 A3024 RMK AO2 SLP246 T00780061 51010

VFR

7.8°C / 6.7°C

[Περισσότερο]
Άνεμος variable 0kt
Ορατότητα >10km
Καιρός -
Νέφη Few Clouds 2800ft
Overcast 4100ft
Πίεση 1024
Αλλαγή -
Ανεπεξέργαστο KRNT 190753Z AUTO 00000KT 9SM FEW028 OVC041 08/07 A3023 RMK AO2 SLP241 T00780067 400890078

VFR

8.3°C / 6.7°C

[Περισσότερο]
Άνεμος variable 0kt
Ορατότητα >10km
Καιρός -
Νέφη Scattered Clouds 2200ft
Overcast 4100ft
Πίεση
Αλλαγή -
Ανεπεξέργαστο KRNT 190731Z AUTO 00000KT 8SM SCT022 OVC041 08/07 A3024 RMK AO2 T00830067

MVFR

8.3°C / 6.7°C

[Περισσότερο]
Άνεμος variable 0kt
Ορατότητα >10km
Καιρός -
Νέφη Scattered Clouds 1700ft
Broken Clouds 2400ft
Overcast 3900ft
Πίεση 1024
Αλλαγή -
Ανεπεξέργαστο KRNT 190653Z AUTO 00000KT 10SM SCT017 BKN024 OVC039 08/07 A3024 RMK AO2 SLP244 T00830067

MVFR

8.3°C / 6.7°C

[Περισσότερο]
Άνεμος 180º 3kt
Ορατότητα >10km
Καιρός -
Νέφη Broken Clouds 1700ft
Overcast 3300ft
Πίεση 1023
Αλλαγή -
Ανεπεξέργαστο KRNT 190553Z AUTO 18003KT 9SM BKN017 OVC033 08/07 A3022 RMK AO2 SLP236 60000 T00830067 10089 20083 51008

MVFR

8.3°C / 6.7°C

[Περισσότερο]
Άνεμος variable 0kt
Ορατότητα >10km
Καιρός -
Νέφη Few Clouds 2000ft
Overcast 2700ft
Πίεση 1023
Αλλαγή -
Ανεπεξέργαστο KRNT 190453Z 00000KT 8SM FEW020 OVC027 08/07 A3022 RMK AO2 SLP236 T00830067

MVFR

8.3°C / 7.2°C

[Περισσότερο]
Άνεμος variable 0kt
Ορατότητα >10km
Καιρός -
Νέφη Scattered Clouds 900ft
Overcast 2700ft
Πίεση
Αλλαγή -
Ανεπεξέργαστο KRNT 190441Z 00000KT 7SM SCT009 OVC027 08/07 A3022 RMK AO2 T00830072

IFR

8.3°C / 7.2°C

[Περισσότερο]
Άνεμος variable 0kt
Ορατότητα 9700m
Καιρός Mist
Νέφη Vertical Visibility of 0ft.
Overcast 2700ft
Πίεση
Αλλαγή -
Ανεπεξέργαστο KRNT 190434Z 00000KT 6SM BR BKN009 OVC027 08/07 A3021 RMK AO2 CIG 007V012 T00830072

MVFR

8.3°C / 7.2°C

[Περισσότερο]
Άνεμος variable 0kt
Ορατότητα 6400m
Καιρός Mist
Νέφη Vertical Visibility of 0ft.
Broken Clouds 2100ft
Overcast 2700ft
Πίεση
Αλλαγή -
Ανεπεξέργαστο KRNT 190359Z 00000KT 4SM BR BKN011 BKN021 OVC027 08/07 A3020 RMK AO2 T00830072

IFR

8.3°C / 7.2°C

[Περισσότερο]
Άνεμος variable 0kt
Ορατότητα 4000m
Καιρός Mist
Νέφη Vertical Visibility of 0ft.
Broken Clouds 2100ft
Overcast 2500ft
Πίεση 1023
Αλλαγή -
Ανεπεξέργαστο KRNT 190353Z 00000KT 2 1/2SM BR FEW011 BKN021 OVC025 08/07 A3020 RMK AO2 SLP231 T00830072

MVFR

8.3°C / 7.2°C

[Περισσότερο]
Άνεμος variable 0kt
Ορατότητα >10km
Καιρός -
Νέφη Overcast 2200ft
Πίεση 1022
Αλλαγή -
Ανεπεξέργαστο KRNT 190253Z 00000KT 10SM OVC022 08/07 A3019 RMK AO2 SLP228 60000 T00830072 51010

MVFR

8.3°C / 7.2°C

[Περισσότερο]
Άνεμος variable 0kt
Ορατότητα >10km
Καιρός -
Νέφη Overcast 2100ft
Πίεση
Αλλαγή -
Ανεπεξέργαστο KRNT 190200Z 00000KT 10SM OVC021 08/07 A3018 RMK AO2 T00830072

IFR

8.3°C / 7.2°C

[Περισσότερο]
Άνεμος 160º 3kt
Ορατότητα 4000m
Καιρός Light Rain Mist 0.13mm precipitation
Νέφη Overcast 1500ft
Πίεση
Αλλαγή -
Ανεπεξέργαστο KRNT 190100Z 16003KT 2 1/2SM -RA BR OVC015 08/07 A3017 RMK AO2 P0000 T00830072

IFR

8.3°C / 7.2°C

[Περισσότερο]
Άνεμος 170º 3kt
Ορατότητα 4000m
Καιρός Mist
Νέφη Vertical Visibility of 0ft.
Overcast 2100ft
Πίεση
Αλλαγή -
Ανεπεξέργαστο KRNT 190037Z 17003KT 2 1/2SM BR BKN015 OVC021 08/07 A3017 RMK AO2 VIS 1 3/4V4 T00830072

MVFR

8.3°C / 6.7°C

[Περισσότερο]
Άνεμος 180º 3kt
Ορατότητα 4800m
Καιρός Mist
Νέφη Vertical Visibility of 0ft.
Broken Clouds 1300ft
Overcast 2300ft
Πίεση
Αλλαγή -
Ανεπεξέργαστο KRNT 190024Z 18003KT 3SM BR SCT009 BKN013 OVC023 08/07 A3017 RMK AO2 T00830067

IFR

8.9°C / 6.7°C

[Περισσότερο]
Άνεμος 180º variable 006º to 013º 4kt
Ορατότητα 4800m
Καιρός Mist
Νέφη Vertical Visibility of 0ft.
Πίεση
Αλλαγή -
Ανεπεξέργαστο KRNT 182358Z AUTO 18004KT 3SM BR OVC007 09/07 A3016 RMK AO2 CIG 006V013 T00890067

IFR

8.3°C / 6.7°C

[Περισσότερο]
Άνεμος 180º 4kt
Ορατότητα 4000m
Καιρός Mist
Νέφη Vertical Visibility of 0ft.
Overcast 1300ft
Πίεση 1021
Αλλαγή -
Ανεπεξέργαστο KRNT 182353Z 18004KT 2 1/2SM BR BKN009 OVC013 08/07 A3016 RMK AO2 SLP218 60000 T00830067 10089 20083 53010

IFR

8.9°C / 6.7°C

[Περισσότερο]
Άνεμος 210º 3kt
Ορατότητα 4000m
Καιρός Mist 0.13mm precipitation
Νέφη Broken Clouds 900ft
Overcast 1500ft
Πίεση 1021
Αλλαγή -
Ανεπεξέργαστο KRNT 182253Z 21003KT 2 1/2SM BR BKN009 OVC015 09/07 A3015 RMK AO2 RAB41E48 SLP215 P0000 T00890067

Ραντάρ και πρόγνωση υετού μικρής δειάρκειας για Renton

Ψιλοβρέχει
Φως
Μέτρια
Βαριά
Πολύ βαρύ
Χαλάζι

Ο δείκτης θέσης τοποθετείται στο Renton. Αυτή η κινούμενη εικόνα δείχνει την ραντάρ βροχόπτωσης για την τελευταία ώρα, καθώς και 1πρόγνωση h. Το ψιλόβροχο ή το ελαφρύ χιόνι μπορεί να είναι αόρατο για το ραντάρ. Η ένταση της βροχόπτωσης είναι χρωματικά κωδικοποιημένη και κυμαίνεται από γαλάζιο έως πορτοκαλί.

Τρέχουσες εικόνες δορυφόρου για Renton, ΗΠΑ

Η ένδειξη τοποθεσίας τοποθετείται στο Renton. [Περισσότερο]

Οι δορυφορικές εικόνες σε πραγματικό χρόνο συνδυάζουν ορατό φως κατά τη διάρκεια της ημέρας με υπέρυθρη ακτινοβολία κατά τη διάρκεια της νύχτας. Κατά τη διάρκεια της νύχτας, η εικόνα δεν είναι σκοτεινή μιας και η υπέρυθρη ακτινοβολία μπορεί να εντοπίσει τις διαφορές στη θερμοκρασία. Δυστυχώς, είναι δύσκολο να ξεχωρίσουν οι χαμηλές νεφώσεις και η ομίχλη από τις θερμοκρασίες εδάφους και έτσι μπορεί να είναι σχετικά αόρατα κατά τη διάρκεια της νύχτας. Οι εικόνες από τον δορυφόρο Meteosat για την Ευρώπη ενημερώνονται σε πραγματικό χρόνο κάθε 5 λεπτά. Οι εικόνες από τους δορυφόρους GOES-16/GOES-17 (Βόρεια & Λατινική Αμερική) και Himawari (Ασία) ενημερώνονται κάθε 10 λεπτά.